This demonstration page uses our WeatherBlox Daily Observations layout. Learn more.

Left ArrowRight Arrow

34.02893, -84.19858

Hourly Observations for March 1, 2022

Temp ( °F °C ) Dew Point ( °F °C ) Humidity (%) Winds ( mph kmh ) Pressure ( in mb ) Visibility ( mi km ) Precip ( " mm )
12:53 am 00:53 Clear 42 5.6 37 2.8 82 82 Calm 30.16 1021 10 16 0.00 0.00
1:53 am 01:53 Clear 38 3.3 36 2.2 93 93 Calm 30.17 1022 10 16 0.00 0.00
2:53 am 02:53 Clear 37 2.8 35 1.7 93 93 Calm 30.18 1022 10 16 0.00 0.00
3:53 am 03:53 Clear 37 2.8 35 1.7 93 93 Calm 30.17 1022 10 16 0.00 0.00
4:53 am 04:53 Clear 36 2.2 35 1.7 97 97 Calm 30.18 1022 10 16 0.00 0.00
5:53 am 05:53 Clear 37 2.8 35 1.7 93 93 Calm 30.18 1022 10 16 0.00 0.00
6:53 am 06:53 Clear 36 2.2 35 1.7 97 97 Calm 30.19 1023 10 16 0.00 0.00
7:53 am 07:53 Sunny 38 3.3 36 2.2 93 93 Calm 30.21 1023 10 16 0.00 0.00
8:53 am 08:53 Sunny 46 7.8 38 3.3 73 73 Calm 30.21 1023 10 16 0.00 0.00
9:53 am 09:53 Sunny 53 11.7 33 0.6 47 47 Calm 30.20 1023 10 16 0.00 0.00
10:53 am 10:53 Sunny 58 14.4 31 -0.6 36 36 W 6 9 30.19 1023 10 16 0.00 0.00
11:53 am 11:53 Sunny 61 16.1 29 -1.7 30 30 SW 6 9 30.18 1022 10 16 0.00 0.00
12:53 pm 12:53 Sunny 64 17.8 27 -2.8 25 25 W 7 11 30.16 1021 10 16 0.00 0.00
1:53 pm 13:53 Sunny 65 18.3 23 -5 20 20 NNW 6 9 30.13 1020 10 16 0.00 0.00
2:53 pm 14:53 Sunny 65 18.3 25 -3.9 22 22 W 12 19 30.11 1020 10 16 0.00 0.00
3:53 pm 15:53 Sunny 66 18.9 25 -3.9 21 21 WNW 8 13 30.10 1019 10 16 0.00 0.00
4:53 pm 16:53 Sunny 65 18.3 26 -3.3 23 23 W 7 11 30.10 1019 10 16 0.00 0.00
5:53 pm 17:53 Sunny 64 17.8 29 -1.7 27 27 W 7 11 30.10 1019 10 16 0.00 0.00
6:53 pm 18:53 Clear 59 15 28 -2.2 31 31 W 5 7 30.13 1020 10 16 0.00 0.00
7:53 pm 19:53 Clear 57 13.9 29 -1.7 34 34 WNW 6 9 30.14 1021 10 16 0.00 0.00
8:53 pm 20:53 Clear 56 13.3 28 -2.2 34 34 Calm 30.13 1020 10 16 0.00 0.00
9:53 pm 21:53 Clear 48 8.9 32 0 54 54 Calm 30.14 1021 10 16 0.00 0.00
10:53 pm 22:53 Clear 48 8.9 30 -1.1 50 50 Calm 30.15 1021 10 16 0.00 0.00
11:53 pm 23:53 Clear 48 8.9 31 -0.6 52 52 WSW 3 6 30.14 1021 10 16 0.00 0.00

Powered by AerisWeather